Regional Weather Roundup
Issued by NWS Sterling, VA

Home | Current Version | Previous Version | Graphics & Text | Print | Product List | Glossary On
Versions: 1 2 3 4 5 6 7 8 9 10 11 12 13 14 15 16 17 18 19 20 21 22 23 24 25 26 27
000
ASUS41 KLWX 252211
RWRLWX

REGIONAL WEATHER ROUNDUP
NATIONAL WEATHER SERVICE BALTIMORE MD/WASHINGTON DC
600 PM EDT TUE JUL 25 2017

Note: "FAIR" indicates few or no clouds below 12,000 feet
with no significant weather and/or obstructions to visibility.
 TC=TEMPERATURE CELSIUS

 * =Non NWS site. Station does not report precipitation (e.g. rain,
    snow, etc.), thunder, or fog.

DCZ001-MDZ009-015-VAZ040>042-051-053>054-252300-
WASHINGTON METRO

CITY           SKY/WX    TMP DP  RH WIND       PRES   REMARKS
WASHINGTON NAT PTSUNNY   80  62  54 NW13      30.13R
DULLES         PTSUNNY   77  59  53 NW9       30.14S
ANDREWS AFB    PTSUNNY   78  61  54 NW9       30.11S
FT BELVOIR     MOSUNNY   80  60  51 NW12      30.12S
QUANTICO       PTSUNNY   82  63  52 N7        30.13S
COLLEGE PARK*  MOSUNNY   78  61  55 NW6       30.12S
LEESBURG*      SUNNY     79  63  57 NW7       30.15S
MANASSAS*      CLOUDY    78  61  55 N9        30.14S
GAITHERSBURG*  CLOUDY    75  62  64 CALM      30.15S

$$

MDZ006>007-011-014-252300-
BALTIMORE METRO

CITY           SKY/WX    TMP DP  RH WIND       PRES   REMARKS
BWI AIRPORT    PTSUNNY   78  62  57 NW9       30.12R
MD SCIENCE CTR   N/A     80  61  52 MISG      30.12S
MARTIN STATE   PTSUNNY   79  64  61 NW8       30.13R
ANNAPOLIS      CLOUDY    79  65  62 NE3       30.11S
FORT MEADE*    CLOUDY    75  63  64 NW3       30.14S

$$

MDZ012-015-019>023-252300-
MARYLAND EASTERN SHORE

CITY           SKY/WX    TMP DP  RH WIND       PRES   REMARKS
OCEAN CITY     MOSUNNY   75  67  76 NE12      30.10R
SALISBURY      CLOUDY    80  66  62 NE9       30.10R
BAY BRIDGE AP* PTSUNNY   79  64  61 N6        30.11S
CAMBRIDGE*     MOSUNNY   81  64  57 N7G14     30.10S
EASTON*        PTSUNNY   81  64  57 NW8       30.14S

$$

MDZ017>025-252300-
SOUTHERN MARYLAND

CITY           SKY/WX    TMP DP  RH WIND       PRES   REMARKS
PATUXENT RIVER MOSUNNY   81  65  58 N8        30.10S
ST INIGOES     MOSUNNY   81  64  56 VRB7      30.10S
LEONARDTOWN*   PTSUNNY   77  63  61 CALM      30.13S

$$

MDZ003>005-252300-
NORTH CENTRAL MARYLAND

CITY           SKY/WX    TMP DP  RH WIND       PRES   REMARKS
FREDERICK*     CLOUDY    79  59  50 N7        30.17S
HAGERSTOWN APT PTSUNNY   76  60  57 NW7       30.16S
WESTMINSTER*   CLOUDY    77  63  61 NW3       30.16R

$$

MDZ501>502-252300-
WESTERN MARYLAND

CITY           SKY/WX    TMP DP  RH WIND       PRES   REMARKS
OAKLAND*       CLOUDY    61  54  77 W3        30.23S
CUMBERLAND*    CLOUDY    73  59  60 NW5       30.21S

$$

VAZ025>031-252300-
SHENANDOAH VALLEY

CITY           SKY/WX    TMP DP  RH WIND       PRES   REMARKS
WINCHESTER*    CLOUDY    72  55  56 N3        30.17S
FRONT ROYAL*   MOSUNNY   73  59  60 N5        30.16R
LURAY*         SUNNY     79  59  50 NE6       30.15R
NEW MARKET*    SUNNY     78  58  48 NE10      30.14R
STAUNTON*      SUNNY     82  58  43 N10       30.15S
WAYNESBORO*    SUNNY     83  59  44 N9        30.14R

$$

WVZ021-048>050-054>055-252300-
EASTERN WEST VIRGINIA PANHANDLE

CITY           SKY/WX    TMP DP  RH WIND       PRES   REMARKS
MARTINSBURG    CLOUDY    76  58  53 N9        30.15S
PETERSBURG*    SUNNY     79  59  51 N9        30.17S

$$

VAZ036>039-050-252300-
CENTRAL FOOTHILLS

CITY           SKY/WX    TMP DP  RH WIND       PRES   REMARKS
CHARLOTTESVILL SUNNY     84  61  45 NE10      30.11S
CULPEPER*      SUNNY     79  62  54 N9        30.14S
ORANGE*        SUNNY     79  61  53 N8        30.13S
GORDONSVILLE*  SUNNY     82  61  50 NE8       30.11F
WARRENTON*     SUNNY     80  58  46 N10       30.14S

$$

VAZ055>057-252300-
NORTH AND CENTRAL PIEDMONT

CITY           SKY/WX    TMP DP  RH WIND       PRES   REMARKS
FREDERICKSBRG* MOSUNNY   81  61  49 NW3       30.11F
STAFFORD*      SUNNY     80  60  50 N9        30.16F

$$

NCZ024-NYZ072-PAZ021-071-VAZ022-071-252300-
OTHER REGIONAL OBSERVATIONS

CITY           SKY/WX    TMP DP  RH WIND       PRES   REMARKS
NEW YORK CITY  CLOUDY    69  60  73 E7        30.17R
PHILADELPHIA   CLOUDY    76  60  57 S3        30.11S
PITTSBURGH     MOSUNNY   75  57  53 NE6       30.19F
ROANOKE        SUNNY     90  54  29 NW8       30.11F
RICHMOND       MOSUNNY   85  59  41 N10       30.09S
RALEIGH        PTSUNNY   91  63  39 N6        30.06F HX  92

$$

ANZ530>537-252300-
MARINE OBSERVATIONS

STATION/POSITION TIME  TEMP    WIND        PRES
                       AIR SEA DIR/SP/G
                 (UTC) (F)     (DEG/KT/KT) (MB)
THOMAS PT LIGHT  2200   78 82  360/  5/  7   N/A
BALT KEY BRIDGE  2148   78     310/ 10/ 12 1019.4S
COVE POINT       2148   78      10/  7/ 12 1020.0S
LEWISETTA        2148   80 83  360/  4/  6 1019.3R
SOLOMONS ISLAND  2148   78 84  360/  5/  9   N/A
PINEY POINT      2148          360/  8/ 10   N/A

$$





USA.gov is the U.S. government's official web portal to all federal, state and local government web resources and services.